www.pogodaiklimat.ru

Погода и климат >> Архив погоды >> Бразилия >> Campos Sales


ПОГОДА в Campos Sales

  • Прогноз погоды в Campos Sales
  • Монитор погоды в Campos Sales
  • Климат города

АРХИВ ПОГОДЫ в Campos Sales

Время (UTC), дата Ветер
(напр.,м/с)
 
Видим.   Явления Облачность Т
(С)
Тd
(С)
f
(%)
Тe
(С)
Тes
(С)
Комфортность P
(гПа)
Po
(гПа)
Тmin
(С)
Tmax
(С)
R
(мм)
R24
(мм)
S
(см)
05 8.12 С 1
{3}
н/о н/о +21.8 +20.7 93 +28 +28 душно 1014.4 948.7
04 8.12 В 1
{1}
н/о н/о +21.8 +21.4 98 +28 +28 душно 1013.7 948.0
06 8.12 В 1 н/о н/о +22.1 +21.0 93 +29 +29 очень
душно
1013.4 948.5
07 8.12 В 1
{1}
н/о н/о +22.1 +21.0 93 +29 +29 очень
душно
1014.1 948.5
08 8.12 ЮВ 1
{3}
н/о н/о +22.0 +21.4 96 +29 +29 очень
душно
1015.1 949.4 4
09 8.12 ЮВ 1
{2}
н/о н/о +21.9 +21.1 95 +28 +28 душно 1015.8 950.0
11 8.12 С 1
{3}
н/о н/о +24.0 +22.0 89 +31 +31 очень
душно
1015.9 950.6 0.2
10 8.12 В 1
{3}
н/о н/о +21.3 +21.0 98 +27 +27 душно 1016.7 950.7 8
12 8.12 СВ 3 н/о н/о +26.2 +20.0 69 +32 +32 очень
душно
1014.4 950.3 +21.0 13
13 8.12 С 1
{3}
н/о н/о +27.6 +19.8 62 +33 +33 очень
душно
1014.5 950.0
14 8.12 В 2
{4}
н/о н/о +29.4 +20.1 57 +36 +36 очень
душно
1013.7 949.6
15 8.12 СВ 1
{4}
н/о н/о +30.4 +18.9 50 +36 +36 очень
душно
1012.4 948.6
17 8.12 СВ 1
{4}
н/о н/о +31.0 +18.7 48 +36 +36 очень
душно
1010.1 946.6
16 8.12 СВ 1
{2}
н/о н/о +31.2 +20.4 53 +38 +38 очень
душно
1011.3 947.7
18 8.12 СВ 3 н/о н/о +31.3 +19.2 49 +37 +37 очень
душно
1008.5 945.8
19 8.12 СВ 2
{4}
н/о н/о +32.1 +18.5 44 +37 +37 очень
душно
1008.5 945.3
20 8.12 СВ 2
{4}
н/о н/о +30.2 +19.4 52 +36 +36 очень
душно
1008.8 945.2
21 8.12 В 2
{4}
н/о н/о +28.4 +19.2 57 +34 +34 очень
душно
1009.8 945.8
23 8.12 В 1
{2}
н/о н/о +25.7 +21.2 76 +32 +32 очень
душно
1012.6 947.8
22 8.12 В 1
{3}
н/о н/о +26.9 +20.3 67 +33 +33 очень
душно
1011.1 946.7
00 9.12 Ю 2 н/о н/о +25.1 +21.4 80 +32 +32 очень
душно
1013.0 948.7 +32.2
01 9.12 штиль 0
{1}
н/о н/о +24.2 +22.4 90 +32 +32 очень
душно
1014.3 949.1
02 9.12 ЮВ 1
{1}
н/о н/о +23.9 +21.4 86 +30 +30 очень
душно
1013.8 948.6
03 9.12 ЮВ 1
{1}
н/о н/о +23.2 +22.2 94 +32 +32 очень
душно
1013.2 947.9
05 9.12 СВ 2
{3}
н/о н/о +23.4 +19.9 81 +30 +30 очень
душно
1013.3 948.0
04 9.12 СВ 2
{3}
н/о н/о +23.5 +20.4 83 +29 +29 душно 1013.3 948.0
06 9.12 В 3 н/о н/о +23.1 +19.8 82 +30 +30 очень
душно
1013.0 948.3
07 9.12 СВ 2
{3}
н/о н/о +22.6 +19.7 84 +29 +29 очень
душно
1014.2 948.7
08 9.12 СВ 2
{4}
н/о н/о +22.6 +20.0 85 +29 +29 очень
душно
1014.4 948.9
09 9.12 СВ 2
{4}
н/о н/о +22.7 +20.3 86 +29 +29 очень
душно
1015.0 949.4
11 9.12 СВ 3
{5}
н/о н/о +24.6 +20.8 79 +31 +31 очень
душно
1015.9 950.7
10 9.12 В 2
{4}
н/о н/о +23.7 +20.9 84 +30 +30 очень
душно
1015.6 950.2
12 9.12 СВ 6 н/о н/о +26.4 +20.7 71 +33 +33 очень
душно
1015.0 950.9 +22.4
13 9.12 В 3
{5}
н/о н/о +27.9 +20.9 66 +35 +35 очень
душно
1015.6 951.1
14 9.12 В 2
{5}
н/о н/о +28.6 +20.8 63 +36 +36 очень
душно
1015.3 951.0
15 9.12 В 3
{4}
н/о н/о +29.9 +20.8 58 +37 +37 очень
душно
1014.4 950.4
17 9.12 В 2
{4}
н/о н/о +30.1 +19.9 54 +36 +36 очень
душно
1011.8 948.0
16 9.12 В 2
{5}
н/о н/о +30.0 +20.3 56 +37 +37 очень
душно
1013.1 949.2
18 9.12 В 4 н/о н/о +29.8 +18.4 50 +35 +35 очень
душно
1010.3 947.2
19 9.12 В 2
{4}
н/о н/о +29.5 +18.1 50 +34 +34 очень
душно
1010.7 946.8
20 9.12 В 1
{4}
н/о н/о +28.7 +18.4 54 +34 +34 очень
душно
1011.6 947.5
21 9.12 В 1
{2}
н/о н/о +27.4 +18.0 57 +32 +32 очень
душно
1012.5 948.1
23 9.12 Ю 1
{2}
н/о н/о +26.3 +20.5 70 +33 +33 очень
душно
1014.4 949.6
22 9.12 ЮВ 1
{3}
н/о н/о +27.0 +18.9 61 +32 +32 очень
душно
1013.5 948.9
00 10.12 ЮВ 5 н/о н/о +21.3 +20.4 95 +27 +27 душно 1016.7 951.4 +30.6 4
01 10.12 В 1
{5}
н/о н/о +21.1 +20.5 96 +26 +26 душно 1018.5 952.4 2
02 10.12 В 1
{2}
н/о н/о +21.4 +20.5 95 +27 +27 душно 1018.0 952.0 1
03 10.12 В 1
{2}
н/о н/о +21.5 +20.6 95 +27 +27 душно 1017.7 951.7 0.4
05 10.12 СВ 1
{2}
н/о н/о +21.2 +20.9 98 +27 +27 душно 1016.9 950.9 6
04 10.12 ЮВ 1
{1}
н/о н/о +21.3 +20.8 97 +27 +27 душно 1017.1 951.1 6
06 10.12 СВ 1 н/о н/о +21.3 +21.0 98 +27 +27 душно 1016.4 951.1 10
07 10.12 В 1
{4}
н/о н/о +20.9 +20.7 99 +27 +27 душно 1017.8 951.7 29
08 10.12 С 1
{4}
н/о н/о +20.8 +20.4 98 +27 +27 душно 1018.2 952.0 4
09 10.12 Ю 1
{2}
н/о н/о +20.1 +19.6 97 +25 +25 комфорт 1018.7 952.3 0.6
11 10.12 В 1
{2}
н/о н/о +22.4 +20.6 90 +29 +29 очень
душно
1019.0 953.1
10 10.12 Ю 1
{1}
н/о н/о +20.8 +19.9 95 +27 +27 душно 1018.8 952.6
12 10.12 ЮВ 4 н/о н/о +24.6 +20.8 79 +31 +31 очень
душно
1017.6 952.9 +20.1 62
13 10.12 ЮВ 3
{5}
н/о н/о +26.2 +20.3 70 +32 +32 очень
душно
1017.9 952.9
14 10.12 ЮВ 3
{5}
н/о н/о +27.6 +19.8 62 +33 +33 очень
душно
1016.7 952.1
15 10.12 ЮВ 3
{5}
н/о н/о +28.5 +19.5 58 +34 +34 очень
душно
1015.8 951.4
17 10.12 В 2
{3}
н/о н/о +30.0 +20.6 57 +37 +37 очень
душно
1013.0 949.1
16 10.12 В 2
{5}
н/о н/о +29.6 +20.5 58 +36 +36 очень
душно
1014.4 950.3
18 10.12 ЮВ 7 н/о н/о +25.9 +20.8 73 +32 +32 очень
душно
1013.2 949.1
19 10.12 ЮВ 3
{6}
н/о н/о +26.2 +18.9 64 +31 +31 очень
душно
1013.4 948.7 0.8
20 10.12 ЮВ 2
{5}
н/о н/о +26.0 +18.5 63 +31 +31 очень
душно
1014.3 949.5
21 10.12 ЮВ 2
{5}
н/о н/о +25.5 +18.9 67 +30 +30 душно 1015.0 950.0
23 10.12 ЮВ 2
{3}
н/о н/о +23.8 +19.9 79 +29 +29 душно 1016.7 951.3
22 10.12 ЮВ 2
{5}
н/о н/о +24.3 +19.4 74 +29 +29 душно 1015.7 950.4
00 11.12 В 4 н/о н/о +23.7 +19.9 79 +29 +29 душно 1016.2 951.4 +30.2 0.8
01 11.12 ЮВ 2
{4}
н/о н/о +23.7 +20.1 80 +29 +29 душно 1017.1 951.6
02 11.12 ЮВ 3
{4}
н/о н/о +23.6 +19.7 79 +29 +29 душно 1016.9 951.4
03 11.12 ЮВ 3
{6}
н/о н/о +23.3 +19.5 79 +30 +30 очень
душно
1016.2 950.7
05 11.12 ЮВ 3
{5}
н/о н/о +22.7 +19.0 80 +29 +29 очень
душно
1015.5 949.9
04 11.12 ЮВ 2
{5}
н/о н/о +23.0 +19.3 80 +29 +29 очень
душно
1015.9 950.3
06 11.12 ЮВ 5 н/о н/о +22.5 +18.7 79 +28 +28 душно 1014.6 949.7
07 11.12 ЮВ 3
{6}
н/о н/о +22.3 +18.3 78 +27 +27 душно 1015.6 949.9
08 11.12 ЮВ 3
{5}
н/о н/о +21.9 +18.3 80 +27 +27 душно 1015.7 949.9
09 11.12 В 2
{5}
н/о н/о +21.9 +18.5 81 +27 +27 душно 1016.6 950.8
11 11.12 В 3
{6}
н/о н/о +24.7 +17.6 65 +29 +29 душно 1016.6 951.4
10 11.12 В 3
{5}
н/о н/о +23.3 +18.4 74 +29 +29 душно 1016.6 951.1
12 11.12 В 6 н/о н/о +26.5 +17.7 58 +31 +31 душно 1015.9 951.7 +21.7 0.8
13 11.12 В 2
{6}
н/о н/о +27.4 +17.9 56 +32 +32 очень
душно
1016.2 951.6
14 11.12 В 3
{6}
н/о н/о +28.7 +17.3 50 +33 +33 очень
душно
1015.6 951.3
15 11.12 В 2
{5}
н/о н/о +29.7 +18.6 51 +35 +35 очень
душно
1014.9 950.8
17 11.12 В 2
{5}
н/о н/о +30.3 +18.6 50 +35 +35 очень
душно
1013.0 949.2
16 11.12 В 2
{5}
н/о н/о +30.8 +18.9 49 +36 +36 очень
душно
1013.9 950.1
18 11.12 В 4 н/о н/о +30.5 +18.3 48 +35 +35 очень
душно
1011.8 948.7
19 11.12 В 2
{4}
н/о н/о +30.3 +17.6 47 +35 +35 очень
душно
1012.5 948.7
20 11.12 В 2
{3}
н/о н/о +28.9 +16.5 47 +32 +32 душно 1012.9 948.8
21 11.12 В 1
{3}
н/о н/о +27.5 +17.2 53 +31 +31 душно 1013.6 949.1
23 11.12 В 1
{2}
н/о н/о +25.1 +20.1 74 +31 +31 очень
душно
1014.7 949.7
22 11.12 В 1
{2}
н/о н/о +26.1 +19.9 69 +32 +32 очень
душно
1014.1 949.3
00 12.12 ЮВ 1 н/о н/о +24.0 +19.0 74 +29 +29 душно 1014.8 950.2 +31.0
01 12.12 В 1
{2}
н/о н/о +23.6 +18.4 73 +28 +28 душно 1016.1 950.7
02 12.12 В 1
{1}
н/о н/о +23.1 +19.0 78 +29 +29 очень
душно
1015.8 950.3
03 12.12 ЮВ 1
{1}
н/о н/о +22.4 +19.4 83 +28 +28 душно 1015.5 949.8
05 12.12 ЮВ 2
{5}
н/о н/о +23.1 +18.8 77 +29 +29 очень
душно
1015.0 949.5
04 12.12 ЮВ 3
{4}
н/о н/о +23.5 +18.7 74 +28 +28 душно 1014.9 949.5
06 12.12 ЮВ 4 н/о н/о +22.6 +18.4 77 +28 +28 душно 1014.4 949.5
07 12.12 В 1
{4}
н/о н/о +21.9 +18.4 81 +27 +27 душно 1015.5 949.7
08 12.12 ЮВ 2
{3}
н/о н/о +21.3 +18.1 82 +26 +26 душно 1015.9 950.0
09 12.12 ЮВ 2
{3}
н/о н/о +21.4 +17.9 80 +26 +26 душно 1016.6 950.7
11 12.12 ЮВ 3
{6}
н/о н/о +24.1 +16.8 64 +28 +28 душно 1016.6 951.2
10 12.12 ЮВ 2
{4}
н/о н/о +22.6 +17.0 71 +27 +27 душно 1016.6 950.9
12 12.12 ЮВ 6 н/о н/о +25.7 +16.3 56 +29 +29 душно 1015.6 951.3 +21.1
13 12.12 В 2
{6}
н/о н/о +27.5 +17.6 55 +32 +32 очень
душно
1015.6 951.0
14 12.12 В 2
{6}
н/о н/о +28.3 +17.1 51 +32 +32 душно 1015.0 950.6
15 12.12 В 2
{6}
н/о н/о +29.0 +17.3 49 +33 +33 очень
душно
1014.1 949.9
17 12.12 ЮВ 3
{6}
н/о н/о +28.6 +16.6 48 +32 +32 душно 1012.9 948.7
16 12.12 В 2
{4}
н/о н/о +30.3 +17.6 47 +35 +35 очень
душно
1013.0 949.2
18 12.12 ЮВ 5 н/о н/о +28.9 +15.7 45 +32 +32 душно 1011.5 948.1
19 12.12 ЮВ 3
{5}
н/о н/о +28.8 +15.5 44 +32 +32 душно 1012.0 947.9
20 12.12 ЮВ 2
{5}
н/о н/о +28.6 +15.7 46 +32 +32 душно 1012.0 947.9
21 12.12 ЮВ 2
{4}
н/о н/о +27.4 +15.8 49 +30 +30 жарко 1012.9 948.5
23 12.12 ЮВ 1
{2}
н/о н/о +25.1 +16.5 59 +29 +29 душно 1014.2 949.2
22 12.12 ЮВ 1
{3}
н/о н/о +26.3 +16.8 56 +30 +30 душно 1013.6 948.9
00 13.12 Ю 3 н/о н/о +23.8 +16.7 64 +27 +27 жарко 1014.0 949.4 +30.5
01 13.12 ЮВ 1
{3}
н/о н/о +23.2 +16.9 68 +28 +28 душно 1014.9 949.5
02 13.12 ЮВ 1
{2}
н/о н/о +23.1 +16.8 68 +28 +28 душно 1014.4 949.0
03 13.12 ЮВ 2
{4}
н/о н/о +23.5 +17.2 68 +27 +27 душно 1013.7 948.4
05 13.12 ЮВ 3
{5}
н/о н/о +22.7 +17.1 71 +28 +28 душно 1013.0 947.6
04 13.12 ЮВ 3
{5}
н/о н/о +23.2 +17.3 69 +28 +28 душно 1013.1 947.8
06 13.12 ЮВ 3 н/о н/о +22.0 +17.2 74 +26 +26 душно 1012.8 947.9
07 13.12 В 2
{4}
н/о н/о +21.5 +17.3 77 +26 +26 душно 1014.2 948.4
08 13.12 В 1
{3}
н/о н/о +20.6 +16.9 79 +25 +25 комфорт 1014.8 948.8
09 13.12 В 1
{3}
н/о н/о +20.5 +17.4 82 +25 +25 комфорт 1015.6 949.5
11 13.12 ЮВ 3
{5}
н/о н/о +23.9 +17.1 66 +28 +28 душно 1015.6 950.3
10 13.12 ЮВ 2
{5}
н/о н/о +22.2 +16.7 71 +27 +27 душно 1015.7 950.0
12 13.12 ЮВ 5 н/о н/о +25.3 +15.9 56 +29 +29 душно 1014.5 950.2 +20.1
13 13.12 ЮВ 2
{5}
н/о н/о +27.6 +15.5 48 +31 +31 душно 1014.6 950.1
14 13.12 ЮВ 2
{5}
н/о н/о +28.7 +15.6 45 +32 +32 душно 1014.4 950.1
15 13.12 ЮВ 2
{4}
н/о н/о +28.9 +14.8 42 +31 +31 жарко 1013.6 949.4
17 13.12 В 2
{4}
н/о н/о +30.5 +15.2 40 +33 +33 душно 1011.7 948.0
16 13.12 В 2
{4}
н/о н/о +30.0 +15.7 42 +33 +33 душно 1012.6 948.7
18 13.12 В 4 н/о н/о +30.2 +14.6 39 +32 +32 жарко 1010.7 947.6
19 13.12 В 1
{3}
н/о н/о +29.6 +14.9 41 +32 +32 душно 1011.5 947.6
20 13.12 В 1
{2}
н/о н/о +29.3 +14.5 40 +31 +31 жарко 1011.6 947.6
21 13.12 ЮВ 1
{2}
н/о н/о +27.3 +16.2 51 +31 +31 душно 1012.4 948.0
23 13.12 В 1
{2}
н/о н/о +24.7 +17.7 65 +29 +29 душно 1014.2 949.1
22 13.12 В 1
{2}
н/о н/о +26.2 +17.1 57 +30 +30 душно 1013.1 948.4
00 14.12 ЮВ 1 н/о н/о +23.8 +17.1 66 +28 +28 душно 1013.8 949.2 +30.8
01 14.12 ЮВ 1
{2}
н/о н/о +22.8 +17.5 72 +28 +28 душно 1014.7 949.2
02 14.12 Ю 1
{2}
н/о н/о +22.8 +17.5 72 +28 +28 душно 1014.5 949.0
03 14.12 В 1
{2}
н/о н/о +21.9 +18.7 82 +27 +27 душно 1014.3 948.6
05 14.12 С 1
{1}
н/о н/о +20.6 +18.7 89 +26 +26 душно 1013.5 947.6
04 14.12 ЮВ 1
{1}
н/о н/о +21.5 +18.9 85 +26 +26 душно 1013.7 948.0
06 14.12 В 3 н/о н/о +21.1 +17.8 81 +25 +25 комфорт 1012.9 947.8
07 14.12 ЮВ 1
{4}
н/о н/о +21.1 +17.6 80 +25 +25 комфорт 1014.0 948.2
08 14.12 В 1
{2}
н/о н/о +20.9 +18.1 84 +27 +27 душно 1015.1 949.1
09 14.12 ЮВ 1
{2}
н/о н/о +21.7 +18.5 82 +26 +26 душно 1015.6 949.8
11 14.12 В 1
{2}
н/о н/о +23.0 +19.3 80 +29 +29 очень
душно
1016.3 950.7
10 14.12 В 1
{2}
н/о н/о +22.3 +19.1 82 +28 +28 душно 1016.1 950.4
12 14.12 СВ 3 н/о н/о +26.0 +19.5 67 +31 +31 очень
душно
1015.1 950.9 +20.5
13 14.12 В 1
{3}
н/о н/о +26.2 +19.0 65 +31 +31 очень
душно
1015.4 950.6
14 14.12 В 1
{3}
н/о н/о +28.0 +19.2 59 +34 +34 очень
душно
1014.5 950.1
15 14.12 В 1
{4}
н/о н/о +29.4 +19.4 55 +35 +35 очень
душно
1013.7 949.6
17 14.12 В 1
{3}
н/о н/о +30.6 +17.6 46 +35 +35 очень
душно
1011.8 948.1
16 14.12 В 1
{3}
н/о н/о +29.8 +19.4 54 +36 +36 очень
душно
1013.2 949.2
18 14.12 В 4 н/о н/о +30.3 +18.0 48 +35 +35 очень
душно
1010.6 947.5
19 14.12 В 2
{4}
н/о н/о +29.1 +18.4 52 +34 +34 очень
душно
1011.7 947.7
20 14.12 ЮВ 2
{3}
н/о н/о +28.6 +17.4 51 +33 +33 очень
душно
1012.0 947.9
21 14.12 ЮВ 2
{4}
н/о н/о +27.6 +17.2 53 +32 +32 очень
душно
1013.1 948.7
23 14.12 ЮВ 2
{3}
н/о н/о +25.7 +17.1 59 +30 +30 душно 1014.9 950.0
22 14.12 ЮВ 2
{4}
н/о н/о +26.4 +17.4 58 +31 +31 душно 1014.1 949.4
00 15.12 Ю 4 н/о н/о +25.7 +16.6 57 +29 +29 душно 1014.7 950.4 +31.7
01 15.12 Ю 2
{4}
н/о н/о +25.2 +16.3 58 +29 +29 душно 1015.6 950.5
02 15.12 Ю 1
{3}
н/о н/о +24.7 +16.3 60 +28 +28 душно 1015.3 950.1

 

Местоположение метеостанции Campos Sales (Бразилия): широта -7.08 долгота -40.37 высота над уровнем моря 574 м.

В архиве по умолчанию представлена погода в Campos Sales за последнюю неделю. Архивные данные за месяц целиком и за предыдущие месяцы, начиная с января 2011 года, Вы можете получить, выбрав интересующий диапазон дат из раскрывающегося списка и нажав кнопку "Ввод!".


*Определитесь, кто Вы:
робот инопланетянин человек

Внимание! Время в таблицах - всемирное. Для получения местного времени необходимо прибавить поправку, которая в Campos Sales равна -3 ч.

Смотрите также архив погоды в соседних городах и на ближайших метеорологических станциях:

Погода в Ouricuri (Бразилия) (63 км)
Погода в Picos (Бразилия) (114 км)
Погода в Taua (Бразилия) (118 км)
Погода в Taua (Бразилия) (120 км)
Погода в Barbalha (Бразилия) (121 км)
Погода в Picos (Бразилия) (123 км)
Погода в Barbalha (Бразилия) (124 км)
Погода в Iguatu (Бразилия) (143 км)
Погода в Paulistana (Бразилия) (145 км)
Погода в Valenca do Piaui (Бразилия) (168 км)

Пояснения к столбцам:

Ветер - указаны скорость ветра в м/с - средняя за 10 мин, порывы в срок и между сроками (в фигурных скобках) и направление, откуда дует ветер: С - северный, СВ - северо-восточный, В - восточный, ЮВ - юго-восточный, Ю - южный, ЮЗ - юго-западный, З - западный, СЗ - северо-западный.
Видимость - горизонтальная дальность видимости в метрах или километрах. При видимости от 1 до 10 км при отсутствии осадков обычно наблюдается дымка, при ухудшении видимости до 1 км и менее - туман. В сухую погоду видимость может ухудшаться дымом, пылью или мглою.
Явления - указаны атмосферные явления, наблюдавшиеся в срок или в последний час перед сроком; фигурными скобками обозначены явления, наблюдавшиеся между сроками (за 1-3 часа до срока); квадратными скобками обозначены град или гололедные отложения с указанием их диаметра в мм.
Облачность - указаны через наклонную черту общая и нижняя облачность в баллах и высота нижней границы облаков в метрах; квадратными скобками обозначены формы облаков: Ci - перистые, Cs - перисто-слоистые, Cc - перисто-кучевые, Ac - высококучевые, As - высокослоистые, Sc - слоисто-кучевые, Ns - слоисто-дождевые, Cu - кучевые, Cb - кучево-дождевые. Подробнее классификацию облаков см. в Атласе облаков (PDF).
T - Температура воздуха - температура, измеренная на высоте 2 м над землей.
Td - Температура точки росы - температура, при понижении до которой содержащийся в воздухе водяной пар достигнет насыщения.
f - Относительная влажность воздуха - влажноcть воздуха, измеренная на высоте 2 м над землей.
Te - Эффективная температура - температура, которую ощущает одетый по сезону человек в тени. Характеристика душности погоды. При расчете учитывается влияние влажности воздуха и скорости ветра на теплоощущения человека.
Tes - Эффективная температура на солнце - температура, которую ощущает человек, с поправкой на солнечный нагрев. Характеристика знойности погоды. Зависит от высоты солнца над горизонтом, облачности и скорости ветра. Ночью, в пасмурную погоду, а также при ветре 12 м/с и более поправка равна нулю.
P - Атмосферное давление - приведенное к уровню моря атмосферное давление.
Po - Атмосферное давление - измеренное на уровне метеостанции атмосферное давление.
Tmin - Минимальная температура - минимум температуры воздуха на высоте 2 м над землей.
Tmax - Максимальная температура - максимум температуры воздуха на высоте 2 м над землей.
R - Количество осадков - Количество выпавших осадков за период времени, мм. При наведении курсора мыши на число - период времени, за который выпало указанное количество осадков.
R24 - Количество осадков - Количество выпавших осадков за 24 часа, мм.
S - Снежный покров - Высота снежного покрова, см. При наведении курсора мыши на число - состояние снежного покрова и степень покрытия местности в баллах.